Location: Paris
(48.6709°N, 2.3750°E)
Time: 00:40:33
(UTC+02:00)

LO-87 - Pass Details

Date: 29 June 2022
Orbit: 450 x 466 km, 97.4° (Epoch: 18 August)

Event Time Altitude Azimuth Distance (km) Brightness Sun altitude
Exits shadow 01:26:22 50° 191° (S) 592 ? -17.8°
Maximum altitude 01:27:07 72° 257° (WSW) 489 ? -17.8°
Drops below altitude 10° 01:30:36 10° 343° (NNW) 1,623 ? -17.9°
Sets 01:32:40 0° 346° (NNW) 2,508 ? -17.9°
